Weather History for Nassau Airport, Bahamas

Change the Weather History Date:

Monday, September 2, 2013

  Actual Average Record
Temperature  
Mean Temperature 84 °F -  
Max Temperature 91 °F 88 °F - ()
Min Temperature 77 °F 74 °F - ()
Cooling Degree Days 19    
Growing Degree Days 34 (Base 50)    
Moisture  
Dew Point 77 °F    
Average Humidity 88    
Maximum Humidity 100    
Minimum Humidity 70    
Precipitation  
Precipitation 1.26 in 0.23 in - ()
Sea Level Pressure  
Sea Level Pressure 30.00 in    
Wind  
Wind Speed 1 mph ()    
Max Wind Speed 7 mph    
Max Gust Speed -    
Visibility 6.2 miles    
Events Rain , Thunderstorm    
T = Trace of Precipitation, MM = Missing Value Source: Averaged Metar Reports

Daily Weather History Graph

Daily Weather History Graph

Search for Another Location

Airport:

Trip Planner

Search our weather history database for the weather conditions in past years. The results will help you decide how hot, cold, wet, or windy it might be!

Date:

Astronomy

Sep. 02, 2013 Rise Set
Actual Time 6:51 AM EDT 7:27 PM EDT
Civil Twilight 6:27 AM EDT 7:50 PM EDT
Nautical Twilight 6:00 AM EDT 8:17 PM EDT
Astronomical Twilight 5:33 AM EDT 8:45 PM EDT
Moon 4:16 AM EDT (9/2) 5:31 PM EDT (9/2)
Length of Visible Light 13h 22m
Length of Day
12h 36m
Waning Crescent, 8% of the Moon is Illuminated
Sep 2
Waning Crescent
Sep 5
New
Sep 12
First Quarter
Sep 19
Full
Sep 26
Last Quarter

Hourly Weather History & Observations

Time (EDT) Temp. Heat Index Dew Point Humidity Pressure Visibility Wind Dir Wind Speed Gust Speed Precip Events Conditions
2:00 AM 82.4 °F 92.4 °F 78.8 °F 89% 29.99 in 6.2 mi SE 2.3 mph - N/A   Scattered Clouds
3:00 AM 80.6 °F 87.1 °F 77.0 °F 89% 29.97 in 6.2 mi Calm Calm - N/A   Scattered Clouds
4:00 AM 80.6 °F 87.1 °F 77.0 °F 89% 29.96 in 6.2 mi Calm Calm - N/A   Scattered Clouds
5:00 AM 81 °F - 78 °F 86% 29.96 in 8 mi Calm Calm - -   Scattered Clouds
5:00 AM 80.6 °F 87.1 °F 77.0 °F 89% 29.96 in 6.2 mi Calm Calm - N/A   Partly Cloudy
6:00 AM 80.6 °F 87.1 °F 77.0 °F 89% 29.97 in 6.2 mi Calm Calm - N/A   Scattered Clouds
7:00 AM 80.6 °F 87.1 °F 77.0 °F 89% 29.98 in 6.2 mi Calm Calm - N/A   Mostly Cloudy
8:00 AM 81 °F - 79 °F 92% 30.02 in 8 mi Calm Calm - -   Partly Cloudy
8:00 AM 80.6 °F 88.1 °F 78.8 °F 94% 30.02 in 6.2 mi Calm Calm - N/A   Scattered Clouds
9:00 AM 80.6 °F 87.1 °F 77.0 °F 89% 30.02 in 6.2 mi Variable 1.2 mph - N/A Rain Light Rain Showers
11:00 AM 87.8 °F 102.5 °F 78.8 °F 75% 30.04 in 6.2 mi North - - N/A   Mostly Cloudy
12:00 PM 86.0 °F 95.1 °F 75.2 °F 70% 30.05 in 6.2 mi South 4.6 mph - N/A   Mostly Cloudy
1:00 PM 78.8 °F - 78.8 °F 100% 30.05 in 5.6 mi SSE 6.9 mph - N/A Rain , Thunderstorm Thunderstorms and Rain
2:00 PM 80.6 °F 88.1 °F 78.8 °F 94% 30.04 in 5.6 mi SE 4.6 mph - N/A Rain , Thunderstorm Thunderstorms and Rain
2:40 PM 86.0 °F 96.9 °F 77.0 °F 74% 30.02 in 6.2 mi Variable 1.2 mph - N/A   Mostly Cloudy
3:00 PM 86.0 °F 96.9 °F 77.0 °F 74% 30.01 in 6.2 mi ENE 3.5 mph - N/A   Mostly Cloudy
3:40 PM 77.0 °F - 73.4 °F 89% 30.01 in 0.5 mi North 5.8 mph - N/A Rain , Thunderstorm Heavy Thunderstorms and Rain
4:00 PM 77.0 °F - 75.2 °F 94% 29.98 in - NE 4.6 mph - N/A Rain , Thunderstorm Thunderstorms and Rain
5:00 PM 79 °F - 78 °F 94% 30.00 in 6 mi WSW 3.5 mph - - Rain , Thunderstorm Thunderstorms and Rain
5:00 PM 78.8 °F - 77.0 °F 94% 30.00 in 5.6 mi WSW 3.5 mph - N/A Rain , Thunderstorm Light Thunderstorms and Rain
6:00 PM 78.8 °F - 75.2 °F 89% 29.98 in 6.2 mi Variable 1.2 mph - N/A   Mostly Cloudy
7:00 PM 82.4 °F 89.5 °F 75.2 °F 79% 29.98 in 6.2 mi Variable 1.2 mph - N/A   Mostly Cloudy
8:00 PM 79 °F - 77 °F 91% 30.00 in 8 mi WSW 1.2 mph - -   Partly Cloudy
8:00 PM 78.8 °F - 77.0 °F 94% 30.00 in 6.2 mi Variable 1.2 mph - N/A   Mostly Cloudy
9:00 PM 80.6 °F 87.1 °F 77.0 °F 89% 30.01 in 6.2 mi Calm Calm - N/A   Mostly Cloudy
10:00 PM 80.6 °F 85.4 °F 73.4 °F 79% 30.03 in 6.2 mi Calm Calm - N/A   Mostly Cloudy
11:00 PM 79 °F - 78 °F 97% 30.03 in 8 mi Calm Calm - -   Scattered Clouds
11:00 PM 80.6 °F 86.2 °F 75.2 °F 84% 30.02 in 6.2 mi Calm Calm - N/A   Scattered Clouds